This demonstration page uses our WeatherBlox Daily Observations layout. Learn more.

Left ArrowRight Arrow

44.89941, -97.11507

Hourly Observations for July 11, 2020

Temp ( °F °C ) Dew Point ( °F °C ) Humidity (%) Winds ( mph kmh ) Pressure ( in mb ) Visibility ( mi km ) Precip ( " mm )
12:53 am 00:53 Clear 72 22.2 65 18.3 79 79 E 8 13 29.90 1013 10 16 0.00 0.00
1:53 am 01:53 Clear 69 20.6 63 17.2 81 81 ENE 3 6 29.93 1014 10 16 0.00 0.00
2:53 am 02:53 Clear 70 21.1 63 17.2 79 79 Calm 29.93 1013 10 16 0.00 0.00
3:53 am 03:53 Clear 68 20 62 16.7 81 81 Calm 29.93 1014 10 16 0.00 0.00
4:53 am 04:53 Clear 64 17.8 61 16.1 90 90 N 3 6 29.93 1014 10 16 0.00 0.00
5:53 am 05:53 Clear 63 17.2 61 16.1 93 93 Calm 29.94 1014 10 16 0.00 0.00
6:53 am 06:53 Sunny 66 18.9 62 16.7 87 87 Calm 29.94 1014 10 16 0.00 0.00
7:53 am 07:53 Mostly Sunny 72 22.2 65 18.3 79 79 NW 3 6 29.94 1014 10 16 0.00 0.00
8:53 am 08:53 Mostly Sunny 75 23.9 67 19.4 76 76 NW 8 13 29.94 1014 10 16 0.00 0.00
9:53 am 09:53 Mostly Cloudy 74 23.3 66 18.9 76 76 NW 15 24 29.96 1015 10 16 0.00 0.00
10:02 am 10:02 Mostly Cloudy 73 22.8 65 18.3 76 76 NW 16 26 29.93 1013 10 16 0.00 0.00
10:24 am 10:24 Mostly Cloudy 73 22.8 61 16.1 66 66 NW 17 28 29.93 1013 10 16 0.00 0.00
10:53 am 10:53 Partly Cloudy 74 23.3 59 15 60 60 NW 20 31 29.97 1015 10 16 0.00 0.00
11:53 am 11:53 Sunny 76 24.4 55 12.8 48 48 NNW 17 28 29.98 1015 10 16 0.00 0.00
12:53 pm 12:53 Sunny 77 25 56 13.3 48 48 NW 15 24 29.98 1015 10 16 0.00 0.00
1:53 pm 13:53 Mostly Sunny 78 25.6 56 13.3 47 47 WNW 16 26 29.98 1015 10 16 0.00 0.00
2:53 pm 14:53 Cloudy 78 25.6 57 13.9 48 48 NW 14 22 29.96 1015 10 16 0.00 0.00
3:53 pm 15:53 Cloudy 76 24.4 58 14.4 54 54 NNW 14 22 29.96 1015 10 16 0.00 0.00
4:53 pm 16:53 Cloudy 74 23.3 58 14.4 57 57 NNW 14 22 29.97 1015 10 16 0.00 0.00
5:53 pm 17:53 Mostly Cloudy 74 23.3 57 13.9 56 56 NW 14 22 29.96 1015 10 16 0.00 0.00
6:53 pm 18:53 Mostly Sunny 73 22.8 56 13.3 55 55 NNW 13 20 29.96 1015 10 16 0.00 0.00
7:53 pm 19:53 Sunny 73 22.8 57 13.9 57 57 NNW 12 19 29.96 1015 10 16 0.00 0.00
8:53 pm 20:53 Sunny 69 20.6 58 14.4 68 68 NNW 8 13 29.98 1015 10 16 0.00 0.00
9:53 pm 21:53 Clear 66 18.9 58 14.4 75 75 NNW 5 7 29.98 1015 10 16 0.00 0.00
10:53 pm 22:53 Clear 62 16.7 57 13.9 84 84 N 7 11 29.99 1016 10 16 0.00 0.00
11:53 pm 23:53 Clear 61 16.1 57 13.9 87 87 NNE 3 6 29.99 1016 10 16 0.00 0.00

Powered by AerisWeather